EDW385R LICA-LSZH

Flight info

Callsign EDW385R
Flight time 1h 53m
Altitude 36000
Route LICA/10 N0446F360 ARBU7F ARBUM DCT EVINO DCT NIKMA DCT CANNE Z651 KELIP KELI3G LSZH/14
Aircraft A320/M-SDE3FGHIRWY/LB1

Departure

Time 2026-04-30 10:28
Airport Lamezia Terme Sant'Eufemia International Airport (LICA)

Arrival

Time 2026-04-30 12:21
Airport Zürich Airport (LSZH)
Time Latitude Longitude Altitude Speed Heading
2026-04-30 10:02 38.90860 16.24610 36 ft 0 kts 53°
2026-04-30 10:23 38.90861 16.24621 35 ft 2 kts 91°
2026-04-30 10:24 38.90848 16.24631 34 ft 2 kts 172°
2026-04-30 10:24 38.90832 16.24619 35 ft 4 kts 210°
2026-04-30 10:24 38.90797 16.24592 36 ft 8 kts 208°
2026-04-30 10:24 38.90735 16.24573 36 ft 10 kts 221°
2026-04-30 10:25 38.90736 16.24469 35 ft 15 kts 278°
2026-04-30 10:25 38.90756 16.24301 32 ft 22 kts 279°
2026-04-30 10:25 38.90783 16.24076 43 ft 28 kts 278°
2026-04-30 10:25 38.90813 16.23809 30 ft 31 kts 278°
2026-04-30 10:26 38.90844 16.23535 28 ft 31 kts 278°
2026-04-30 10:26 38.90877 16.23260 29 ft 31 kts 279°
2026-04-30 10:26 38.90834 16.23023 26 ft 28 kts 238°
2026-04-30 10:26 38.90729 16.22915 26 ft 14 kts 176°
2026-04-30 10:27 38.90684 16.23007 26 ft 16 kts 98°
2026-04-30 10:27 38.90640 16.23387 29 ft 76 kts 98°
2026-04-30 10:27 38.90533 16.24303 32 ft 131 kts 98°
2026-04-30 10:27 38.90372 16.25627 261 ft 156 kts 98°
2026-04-30 10:28 38.90178 16.27004 916 ft 156 kts 98°
2026-04-30 10:28 38.89970 16.28399 1468 ft 166 kts 100°
2026-04-30 10:28 38.89741 16.29951 1788 ft 188 kts 100°
2026-04-30 10:28 38.89484 16.31699 2080 ft 211 kts 102°
2026-04-30 10:29 38.89195 16.33670 2420 ft 237 kts 101°
2026-04-30 10:29 38.88879 16.35840 2898 ft 255 kts 100°
2026-04-30 10:29 38.88550 16.38103 3761 ft 261 kts 101°
2026-04-30 10:29 38.88211 16.40439 4535 ft 271 kts 102°
2026-04-30 10:30 38.87857 16.42868 5212 ft 281 kts 102°
2026-04-30 10:30 38.87494 16.45369 5957 ft 289 kts 101°
2026-04-30 10:30 38.87124 16.47921 6788 ft 293 kts 101°
2026-04-30 10:30 38.86747 16.50520 7540 ft 298 kts 101°
2026-04-30 10:31 38.86364 16.53160 8305 ft 304 kts 102°
2026-04-30 10:31 38.85761 16.55766 9080 ft 307 kts 118°
2026-04-30 10:31 38.84518 16.57977 9882 ft 307 kts 140°
2026-04-30 10:31 38.82764 16.59479 10608 ft 302 kts 162°
2026-04-30 10:32 38.80755 16.60101 11358 ft 295 kts 182°
2026-04-30 10:32 38.78737 16.59838 12054 ft 291 kts 201°
2026-04-30 10:32 38.76927 16.58753 12718 ft 287 kts 220°
2026-04-30 10:32 38.75481 16.56981 13126 ft 296 kts 238°
2026-04-30 10:33 38.74556 16.54564 13260 ft 312 kts 257°
2026-04-30 10:33 38.74377 16.51751 13651 ft 323 kts 277°
2026-04-30 10:33 38.75088 16.49012 14232 ft 331 kts 299°
2026-04-30 10:33 38.76649 16.46814 14808 ft 340 kts 320°
2026-04-30 10:34 38.78585 16.45040 15413 ft 343 kts 319°
2026-04-30 10:34 38.80373 16.43014 16001 ft 344 kts 311°
2026-04-30 10:34 38.81920 16.40675 16597 ft 345 kts 306°
2026-04-30 10:34 38.83417 16.38252 17218 ft 348 kts 306°
2026-04-30 10:35 38.84910 16.35790 17806 ft 351 kts 305°
2026-04-30 10:35 38.86427 16.33262 18359 ft 356 kts 305°
2026-04-30 10:35 38.87942 16.30728 18841 ft 359 kts 305°
2026-04-30 10:35 38.89470 16.28178 19376 ft 361 kts 305°
2026-04-30 10:36 38.90522 16.26512 19706 ft 364 kts 310°
2026-04-30 10:36 38.92334 16.24218 20189 ft 368 kts 313°
2026-04-30 10:36 38.94193 16.21935 20673 ft 371 kts 313°
2026-04-30 10:36 38.96066 16.19635 21163 ft 374 kts 313°
2026-04-30 10:37 38.97952 16.17319 21639 ft 377 kts 313°
2026-04-30 10:37 38.99853 16.14983 22121 ft 379 kts 313°
2026-04-30 10:37 39.01766 16.12631 22598 ft 382 kts 313°
2026-04-30 10:37 39.04349 16.09448 23213 ft 386 kts 313°
2026-04-30 10:38 39.05636 16.07857 23512 ft 388 kts 313°
2026-04-30 10:38 39.07584 16.05445 23902 ft 391 kts 313°
2026-04-30 10:38 39.09552 16.03009 24274 ft 393 kts 313°
2026-04-30 10:38 39.11523 16.00565 24643 ft 395 kts 313°
2026-04-30 10:39 39.13507 15.98098 24985 ft 398 kts 314°
2026-04-30 10:39 39.15505 15.95612 25342 ft 400 kts 314°
2026-04-30 10:39 39.17515 15.93115 25706 ft 402 kts 314°
2026-04-30 10:39 39.19534 15.90609 26055 ft 404 kts 314°
2026-04-30 10:40 39.21564 15.88091 26402 ft 406 kts 314°
2026-04-30 10:40 39.23604 15.85559 26745 ft 408 kts 314°
2026-04-30 10:40 39.25682 15.82975 27091 ft 410 kts 314°
2026-04-30 10:40 39.27737 15.80413 27431 ft 412 kts 314°
2026-04-30 10:41 39.29849 15.77892 27762 ft 415 kts 316°
2026-04-30 10:41 39.32032 15.75442 28095 ft 417 kts 317°
2026-04-30 10:41 39.34265 15.73029 28435 ft 419 kts 318°
2026-04-30 10:41 39.36518 15.70627 28749 ft 421 kts 318°
2026-04-30 10:42 39.38779 15.68207 29061 ft 423 kts 318°
2026-04-30 10:42 39.41039 15.65761 29374 ft 425 kts 318°
2026-04-30 10:42 39.43298 15.63289 29702 ft 425 kts 318°
2026-04-30 10:42 39.45550 15.60806 30028 ft 426 kts 318°
2026-04-30 10:43 39.47807 15.58303 30301 ft 428 kts 318°
2026-04-30 10:43 39.50066 15.55790 30544 ft 429 kts 318°
2026-04-30 10:43 39.52332 15.53264 30763 ft 431 kts 318°
2026-04-30 10:43 39.54611 15.50729 30997 ft 432 kts 318°
2026-04-30 10:44 39.56897 15.48192 31296 ft 432 kts 318°
2026-04-30 10:44 39.59175 15.45661 31638 ft 431 kts 318°
2026-04-30 10:44 39.61450 15.43126 31960 ft 430 kts 318°
2026-04-30 10:44 39.63717 15.40602 32280 ft 430 kts 318°
2026-04-30 10:45 39.65982 15.38078 32598 ft 429 kts 318°
2026-04-30 10:45 39.68247 15.35551 32911 ft 428 kts 318°
2026-04-30 10:45 39.70503 15.33038 33230 ft 428 kts 319°
2026-04-30 10:45 39.72895 15.30732 33530 ft 428 kts 324°
2026-04-30 10:46 39.75360 15.28566 33825 ft 428 kts 324°
2026-04-30 10:46 39.77824 15.26400 34153 ft 427 kts 324°
2026-04-30 10:46 39.80276 15.24244 34442 ft 425 kts 324°
2026-04-30 10:46 39.82726 15.22087 34722 ft 424 kts 324°
2026-04-30 10:47 39.85169 15.19932 34998 ft 423 kts 324°
2026-04-30 10:47 39.87601 15.17785 35257 ft 423 kts 323°
2026-04-30 10:47 39.90035 15.15636 35505 ft 422 kts 323°
2026-04-30 10:47 39.92492 15.13462 35766 ft 421 kts 323°
2026-04-30 10:48 39.94908 15.11318 36004 ft 420 kts 323°
2026-04-30 10:48 39.97320 15.09174 36088 ft 419 kts 323°
2026-04-30 10:48 40.02118 15.04907 36109 ft 417 kts 323°
2026-04-30 10:49 40.06907 15.00649 36111 ft 416 kts 323°
2026-04-30 10:49 40.11686 14.96386 36110 ft 416 kts 323°
2026-04-30 10:50 40.16468 14.92110 36121 ft 416 kts 323°
2026-04-30 10:50 40.21240 14.87841 36120 ft 415 kts 323°
2026-04-30 10:51 40.26005 14.83575 36120 ft 415 kts 323°
2026-04-30 10:51 40.30762 14.79308 36121 ft 414 kts 323°
2026-04-30 10:52 40.35513 14.75044 36121 ft 414 kts 323°
2026-04-30 10:52 40.40263 14.70769 36116 ft 414 kts 323°
2026-04-30 10:53 40.45001 14.66498 36142 ft 413 kts 323°
2026-04-30 10:53 40.49726 14.62232 36140 ft 411 kts 323°
2026-04-30 10:54 40.54434 14.57963 36136 ft 411 kts 323°
2026-04-30 10:54 40.59131 14.53697 36133 ft 410 kts 323°
2026-04-30 10:55 40.63862 14.49399 36134 ft 410 kts 323°
2026-04-30 10:55 40.68551 14.45136 36150 ft 409 kts 322°
2026-04-30 10:56 40.73219 14.40880 36157 ft 407 kts 322°
2026-04-30 10:56 40.77880 14.36628 36153 ft 407 kts 322°
2026-04-30 10:57 40.82533 14.32374 36155 ft 406 kts 322°
2026-04-30 10:57 40.87170 14.28114 36149 ft 406 kts 322°
2026-04-30 10:58 40.91810 14.23853 36148 ft 406 kts 322°
2026-04-30 10:58 40.96460 14.19582 36125 ft 407 kts 322°
2026-04-30 10:59 41.01105 14.15309 36127 ft 407 kts 322°
2026-04-30 10:59 41.05756 14.11020 36128 ft 407 kts 322°
2026-04-30 11:00 41.10401 14.06728 36131 ft 407 kts 322°
2026-04-30 11:00 41.15046 14.02430 36152 ft 407 kts 322°
2026-04-30 11:01 41.19712 13.98097 36150 ft 406 kts 321°
2026-04-30 11:01 41.24342 13.93788 36145 ft 406 kts 321°
2026-04-30 11:02 41.28970 13.89475 36143 ft 406 kts 321°
2026-04-30 11:02 41.33594 13.85168 36134 ft 406 kts 321°
2026-04-30 11:03 41.38209 13.80854 36157 ft 405 kts 321°
2026-04-30 11:04 41.45128 13.74379 36158 ft 404 kts 321°
2026-04-30 11:04 41.49727 13.70064 36157 ft 404 kts 321°
2026-04-30 11:05 41.54317 13.65748 36151 ft 404 kts 321°
2026-04-30 11:05 41.58906 13.61421 36153 ft 404 kts 321°
2026-04-30 11:06 41.63486 13.57097 36179 ft 402 kts 321°
2026-04-30 11:06 41.68051 13.52785 36175 ft 401 kts 321°
2026-04-30 11:07 41.72611 13.48476 36146 ft 401 kts 321°
2026-04-30 11:07 41.77160 13.44159 36152 ft 401 kts 321°
2026-04-30 11:08 41.81705 13.39845 36146 ft 400 kts 321°
2026-04-30 11:08 41.86243 13.35531 36176 ft 400 kts 321°
2026-04-30 11:09 41.90040 13.31908 36167 ft 400 kts 321°
2026-04-30 11:09 41.94567 13.27585 36173 ft 399 kts 321°
2026-04-30 11:10 41.99084 13.23256 36176 ft 399 kts 320°
2026-04-30 11:10 42.03602 13.18918 36160 ft 399 kts 321°
2026-04-30 11:11 42.08125 13.14586 36163 ft 399 kts 321°
2026-04-30 11:11 42.12644 13.10250 36136 ft 399 kts 321°
2026-04-30 11:12 42.17156 13.05903 36120 ft 399 kts 321°
2026-04-30 11:12 42.21673 13.01546 36124 ft 399 kts 321°
2026-04-30 11:13 42.26187 12.97180 36129 ft 399 kts 321°
2026-04-30 11:13 42.30729 12.92781 36158 ft 398 kts 321°
2026-04-30 11:14 42.35217 12.88420 36157 ft 396 kts 321°
2026-04-30 11:14 42.39688 12.84074 36157 ft 395 kts 321°
2026-04-30 11:15 42.44148 12.79736 36156 ft 395 kts 321°
2026-04-30 11:15 42.48596 12.75393 36134 ft 393 kts 321°
2026-04-30 11:16 42.53028 12.71054 36156 ft 393 kts 321°
2026-04-30 11:16 42.57466 12.66708 36151 ft 393 kts 321°
2026-04-30 11:17 42.61898 12.62368 36141 ft 393 kts 321°
2026-04-30 11:17 42.66324 12.58020 36143 ft 393 kts 321°
2026-04-30 11:18 42.70754 12.53665 36144 ft 393 kts 321°
2026-04-30 11:18 42.77388 12.47115 36180 ft 393 kts 321°
2026-04-30 11:19 42.81806 12.42746 36173 ft 392 kts 321°
2026-04-30 11:19 42.86217 12.38370 36169 ft 392 kts 321°
2026-04-30 11:20 42.90660 12.33954 36186 ft 392 kts 321°
2026-04-30 11:20 42.95075 12.29569 36199 ft 393 kts 321°
2026-04-30 11:21 42.99489 12.25179 36218 ft 392 kts 321°
2026-04-30 11:21 43.03894 12.20775 36216 ft 392 kts 320°
2026-04-30 11:22 43.08289 12.16375 36212 ft 391 kts 321°
2026-04-30 11:22 43.12686 12.11998 36214 ft 391 kts 321°
2026-04-30 11:23 43.17087 12.07619 36211 ft 391 kts 321°
2026-04-30 11:24 43.23667 12.01028 36215 ft 391 kts 321°
2026-04-30 11:24 43.28056 11.96627 36214 ft 391 kts 321°
2026-04-30 11:25 43.34641 11.90019 36217 ft 391 kts 321°
2026-04-30 11:26 43.43413 11.81193 36233 ft 391 kts 321°
2026-04-30 11:26 43.47795 11.76765 36232 ft 391 kts 321°
2026-04-30 11:27 43.52173 11.72326 36219 ft 391 kts 321°
2026-04-30 11:27 43.56550 11.67881 36221 ft 391 kts 321°
2026-04-30 11:28 43.63149 11.61173 36207 ft 391 kts 321°
2026-04-30 11:29 43.67530 11.56716 36207 ft 391 kts 321°
2026-04-30 11:29 43.74109 11.50002 36212 ft 392 kts 321°
2026-04-30 11:30 43.80678 11.43265 36208 ft 392 kts 321°
2026-04-30 11:31 43.85065 11.38760 36220 ft 392 kts 321°
2026-04-30 11:31 43.89451 11.34252 36220 ft 393 kts 321°
2026-04-30 11:32 43.93856 11.29714 36200 ft 395 kts 321°
2026-04-30 11:32 43.98267 11.25171 36209 ft 395 kts 321°
2026-04-30 11:33 44.04876 11.18326 36210 ft 395 kts 321°
2026-04-30 11:33 44.09277 11.13746 36228 ft 396 kts 321°
2026-04-30 11:34 44.13693 11.09155 36228 ft 397 kts 321°
2026-04-30 11:34 44.18124 11.04541 36236 ft 398 kts 321°
2026-04-30 11:35 44.22564 10.99909 36230 ft 399 kts 321°
2026-04-30 11:35 44.27009 10.95273 36242 ft 399 kts 321°
2026-04-30 11:36 44.31459 10.90616 36246 ft 400 kts 321°
2026-04-30 11:36 44.35935 10.85911 36258 ft 400 kts 321°
2026-04-30 11:37 44.40381 10.81228 36259 ft 400 kts 321°
2026-04-30 11:37 44.44824 10.76534 36262 ft 400 kts 321°
2026-04-30 11:38 44.49270 10.71842 36286 ft 400 kts 322°
2026-04-30 11:38 44.53727 10.67142 36277 ft 402 kts 322°
2026-04-30 11:39 44.58194 10.62422 36272 ft 403 kts 322°
2026-04-30 11:39 44.62667 10.57673 36252 ft 403 kts 322°
2026-04-30 11:40 44.67136 10.52912 36265 ft 403 kts 321°
2026-04-30 11:40 44.71606 10.48144 36274 ft 403 kts 322°
2026-04-30 11:41 44.76079 10.43361 36269 ft 404 kts 322°
2026-04-30 11:41 44.80562 10.38566 36267 ft 405 kts 322°
2026-04-30 11:42 44.84320 10.34532 36272 ft 406 kts 322°
2026-04-30 11:42 44.88816 10.29707 36268 ft 406 kts 322°
2026-04-30 11:43 44.93317 10.24867 36285 ft 407 kts 322°
2026-04-30 11:43 44.97828 10.20002 36278 ft 408 kts 322°
2026-04-30 11:44 45.02347 10.15112 36272 ft 409 kts 322°
2026-04-30 11:44 45.06874 10.10210 36270 ft 410 kts 322°
2026-04-30 11:45 45.11402 10.05298 36277 ft 410 kts 322°
2026-04-30 11:45 45.15936 10.00375 36266 ft 411 kts 322°
2026-04-30 11:46 45.20476 9.95424 36270 ft 412 kts 322°
2026-04-30 11:46 45.25026 9.90451 36274 ft 413 kts 322°
2026-04-30 11:47 45.29585 9.85458 36280 ft 414 kts 322°
2026-04-30 11:47 45.34149 9.80455 36259 ft 414 kts 322°
2026-04-30 11:48 45.38713 9.75444 36244 ft 415 kts 323°
2026-04-30 11:48 45.43285 9.70414 36201 ft 416 kts 323°
2026-04-30 11:49 45.47862 9.65361 36186 ft 417 kts 323°
2026-04-30 11:49 45.52474 9.60262 36178 ft 417 kts 323°
2026-04-30 11:50 45.57060 9.55185 36184 ft 417 kts 323°
2026-04-30 11:50 45.61640 9.50097 36192 ft 418 kts 323°
2026-04-30 11:51 45.66226 9.44991 36202 ft 418 kts 323°
2026-04-30 11:51 45.70810 9.39879 36287 ft 418 kts 323°
2026-04-30 11:52 45.75406 9.34742 36294 ft 419 kts 323°
2026-04-30 11:52 45.80003 9.29592 36315 ft 420 kts 323°
2026-04-30 11:53 45.84602 9.24424 36315 ft 420 kts 323°
2026-04-30 11:53 45.89198 9.19257 36325 ft 420 kts 323°
2026-04-30 11:54 45.93792 9.14085 36330 ft 420 kts 323°
2026-04-30 11:54 45.98378 9.08901 36315 ft 420 kts 323°
2026-04-30 11:55 46.02971 9.03690 36321 ft 421 kts 323°
2026-04-30 11:55 46.07568 8.98470 36327 ft 421 kts 323°
2026-04-30 11:56 46.12164 8.93246 36331 ft 421 kts 323°
2026-04-30 11:56 46.17132 8.88920 36330 ft 416 kts 341°
2026-04-30 11:57 46.22757 8.87200 36329 ft 414 kts 355°
2026-04-30 11:57 46.28495 8.86364 36319 ft 415 kts 354°
2026-04-30 11:58 46.34274 8.85491 36318 ft 415 kts 354°
2026-04-30 11:58 46.40037 8.84619 36077 ft 417 kts 355°
2026-04-30 11:59 46.42932 8.84182 35328 ft 420 kts 355°
2026-04-30 11:59 46.45850 8.83741 34610 ft 421 kts 355°
2026-04-30 11:59 46.48744 8.83303 34112 ft 416 kts 356°
2026-04-30 11:59 46.51612 8.82872 33561 ft 412 kts 356°
2026-04-30 12:00 46.54452 8.82440 33048 ft 408 kts 356°
2026-04-30 12:00 46.57259 8.82011 32542 ft 403 kts 356°
2026-04-30 12:00 46.60039 8.81589 32019 ft 400 kts 356°
2026-04-30 12:00 46.62803 8.81170 31498 ft 398 kts 357°
2026-04-30 12:01 46.65547 8.80754 30962 ft 395 kts 358°
2026-04-30 12:01 46.68270 8.80340 30456 ft 392 kts 358°
2026-04-30 12:01 46.70977 8.79928 29903 ft 389 kts 358°
2026-04-30 12:01 46.73651 8.79523 29400 ft 384 kts 358°
2026-04-30 12:02 46.76300 8.79122 28918 ft 380 kts 358°
2026-04-30 12:02 46.78920 8.78720 28445 ft 376 kts 358°
2026-04-30 12:02 46.81507 8.78319 27983 ft 372 kts 358°
2026-04-30 12:02 46.84063 8.77925 27533 ft 366 kts 358°
2026-04-30 12:03 46.86569 8.77544 27098 ft 360 kts 358°
2026-04-30 12:03 46.91480 8.76797 26251 ft 350 kts 358°
2026-04-30 12:03 46.93890 8.76428 25836 ft 347 kts 358°
2026-04-30 12:04 46.96287 8.76060 25419 ft 345 kts 357°
2026-04-30 12:04 46.98666 8.75690 24988 ft 343 kts 357°
2026-04-30 12:04 47.01023 8.75315 24569 ft 339 kts 356°
2026-04-30 12:04 47.03360 8.74939 24143 ft 337 kts 356°
2026-04-30 12:05 47.05691 8.74568 23678 ft 336 kts 356°
2026-04-30 12:05 47.08010 8.74164 23223 ft 335 kts 355°
2026-04-30 12:05 47.10306 8.73630 22784 ft 333 kts 353°
2026-04-30 12:05 47.12609 8.73011 22353 ft 331 kts 352°
2026-04-30 12:06 47.14868 8.72376 21928 ft 330 kts 352°
2026-04-30 12:06 47.17113 8.71743 21495 ft 328 kts 352°
2026-04-30 12:06 47.19352 8.71126 21077 ft 327 kts 352°
2026-04-30 12:06 47.21585 8.70527 20655 ft 326 kts 352°
2026-04-30 12:07 47.23819 8.69932 20228 ft 325 kts 352°
2026-04-30 12:07 47.26041 8.69321 19812 ft 325 kts 349°
2026-04-30 12:07 47.28188 8.68260 19390 ft 328 kts 338°
2026-04-30 12:07 47.30256 8.66846 18976 ft 328 kts 338°
2026-04-30 12:08 47.32335 8.65419 18547 ft 329 kts 338°
2026-04-30 12:08 47.34414 8.63991 18084 ft 329 kts 338°
2026-04-30 12:08 47.36482 8.62573 17668 ft 328 kts 338°
2026-04-30 12:08 47.38491 8.60961 17249 ft 329 kts 332°
2026-04-30 12:09 47.40450 8.59229 16820 ft 328 kts 332°
2026-04-30 12:09 47.42403 8.57485 16398 ft 329 kts 329°
2026-04-30 12:09 47.44150 8.55279 15963 ft 333 kts 314°
2026-04-30 12:09 47.45454 8.52443 15547 ft 337 kts 298°
2026-04-30 12:10 47.46222 8.49150 15134 ft 342 kts 283°
2026-04-30 12:10 47.46575 8.45671 14694 ft 343 kts 280°
2026-04-30 12:10 47.46911 8.42176 14257 ft 344 kts 280°
2026-04-30 12:10 47.47249 8.38670 13799 ft 345 kts 279°
2026-04-30 12:11 47.47584 8.35167 13344 ft 343 kts 279°
2026-04-30 12:11 47.47915 8.31681 12905 ft 341 kts 279°
2026-04-30 12:11 47.48246 8.28211 12463 ft 341 kts 279°
2026-04-30 12:11 47.48577 8.24740 12013 ft 340 kts 280°
2026-04-30 12:12 47.48907 8.21286 11577 ft 339 kts 279°
2026-04-30 12:12 47.49236 8.17833 11129 ft 338 kts 278°
2026-04-30 12:12 47.49560 8.14398 10676 ft 338 kts 278°
2026-04-30 12:12 47.49895 8.10996 10433 ft 328 kts 283°
2026-04-30 12:13 47.50733 8.07964 10303 ft 313 kts 307°
2026-04-30 12:13 47.52276 8.05802 10160 ft 296 kts 331°
2026-04-30 12:13 47.54176 8.04814 9503 ft 287 kts 359°
2026-04-30 12:13 47.56114 8.05173 8854 ft 277 kts 25°
2026-04-30 12:14 47.57814 8.06470 8254 ft 276 kts 32°
2026-04-30 12:14 47.58907 8.07454 7926 ft 279 kts 36°
2026-04-30 12:14 47.60271 8.09458 7506 ft 276 kts 59°
2026-04-30 12:14 47.60984 8.12057 7133 ft 273 kts 81°
2026-04-30 12:15 47.61036 8.14840 6772 ft 269 kts 92°
2026-04-30 12:15 47.60967 8.17603 6394 ft 268 kts 92°
2026-04-30 12:15 47.60895 8.20346 6006 ft 266 kts 92°
2026-04-30 12:15 47.60821 8.23075 5626 ft 264 kts 92°
2026-04-30 12:16 47.60742 8.25790 5239 ft 262 kts 92°
2026-04-30 12:16 47.60665 8.28468 4866 ft 259 kts 92°
2026-04-30 12:16 47.60593 8.31125 4518 ft 254 kts 92°
2026-04-30 12:16 47.60525 8.33662 4345 ft 239 kts 91°
2026-04-30 12:17 47.59510 8.38057 4101 ft 222 kts 127°
2026-04-30 12:17 47.58415 8.39625 4016 ft 217 kts 134°
2026-04-30 12:17 47.57297 8.41154 3848 ft 218 kts 132°
2026-04-30 12:18 47.56195 8.42663 3609 ft 214 kts 133°
2026-04-30 12:18 47.55116 8.44142 3314 ft 208 kts 132°
2026-04-30 12:18 47.54054 8.45600 3020 ft 204 kts 133°
2026-04-30 12:18 47.53022 8.47012 2739 ft 200 kts 132°
2026-04-30 12:19 47.52029 8.48378 2499 ft 188 kts 131°
2026-04-30 12:19 47.51103 8.49645 2177 ft 176 kts 131°
2026-04-30 12:19 47.50247 8.50810 1973 ft 163 kts 133°
2026-04-30 12:19 47.49432 8.51926 1735 ft 158 kts 131°
2026-04-30 12:20 47.48634 8.53023 1557 ft 156 kts 131°
2026-04-30 12:20 47.47851 8.54087 1413 ft 145 kts 130°
2026-04-30 12:20 47.47192 8.54997 1385 ft 114 kts 138°
2026-04-30 12:20 47.46729 8.55630 1403 ft 54 kts 135°
2026-04-30 12:21 47.46512 8.55889 1402 ft 37 kts 153°
2026-04-30 12:21 47.46274 8.55984 1405 ft 34 kts 169°
2026-04-30 12:21 47.46046 8.55984 1407 ft 33 kts 186°
2026-04-30 12:21 47.45835 8.55904 1411 ft 29 kts 201°
2026-04-30 12:22 47.45675 8.55861 1408 ft 17 kts 190°
2026-04-30 12:22 47.45650 8.55718 1410 ft 16 kts 277°
2026-04-30 12:22 47.45661 8.55550 1403 ft 16 kts 275°
2026-04-30 12:22 47.45666 8.55382 1400 ft 16 kts 251°
2026-04-30 12:23 47.45574 8.55371 1403 ft 14 kts 154°
2026-04-30 12:23 47.45494 8.55427 1404 ft 15 kts 155°
2026-04-30 12:23 47.45379 8.55506 1406 ft 20 kts 155°
2026-04-30 12:23 47.45273 8.55617 1408 ft 18 kts 110°
2026-04-30 12:24 47.45249 8.55756 1407 ft 10 kts 153°
2026-04-30 12:24 47.45194 8.55752 1410 ft 5 kts 185°
2026-04-30 12:24 47.45184 8.55750 1411 ft 0 kts 185°